BER3280 EDDH-LEIB

Flight info

Callsign BER3280
Flight time N/A
Altitude 37000
Route IDEKO7G/33 IDEKO N850 PIROT/N0462F350 N850 XAROL/N0464F360 DCT BOMBI DCT GIGET DCT ABUKA DCT KRH DCT NATOR/N0466F350 DCT LUTIX DCT BENOT DCT NEMOS DCT GEVEA/N0467F370 DCT INCUS DCT BALSI DCT RETNO DCT TUPOX DCT MTG DCT DIVKO DCT VATIR/N0464F310 DCT PIVUS DCT SULID DCT DIMIB DCT POS
Aircraft B738/M-SDE2E3FGHIRWXY/LB1

Departure

Time N/A
Airport Hamburg Helmut Schmidt Airport (EDDH)

Arrival

Time 2026-05-06 21:17
Airport Ibiza Airport (LEIB)
Time Latitude Longitude Altitude Speed Heading
2026-05-06 19:06 53.02189 9.45544 19726 ft 405 kts 186°
2026-05-06 19:06 52.99374 9.44997 20144 ft 408 kts 185°
2026-05-06 19:06 52.96546 9.44420 20544 ft 412 kts 185°
2026-05-06 19:06 52.93691 9.43812 20926 ft 415 kts 185°
2026-05-06 19:07 52.90814 9.43191 21273 ft 419 kts 185°
2026-05-06 19:07 52.87905 9.42564 21619 ft 423 kts 185°
2026-05-06 19:07 52.84977 9.41937 21929 ft 427 kts 184°
2026-05-06 19:07 52.82056 9.41314 22227 ft 431 kts 184°
2026-05-06 19:08 52.79068 9.40680 22518 ft 435 kts 184°
2026-05-06 19:08 52.76056 9.40042 22801 ft 438 kts 184°
2026-05-06 19:08 52.73015 9.39399 23080 ft 442 kts 183°
2026-05-06 19:08 52.69947 9.38751 23348 ft 446 kts 183°
2026-05-06 19:09 52.66853 9.38098 23605 ft 450 kts 183°
2026-05-06 19:09 52.63742 9.37444 23864 ft 453 kts 183°
2026-05-06 19:09 52.60599 9.36748 24113 ft 458 kts 184°
2026-05-06 19:09 52.57433 9.35942 24341 ft 462 kts 185°
2026-05-06 19:10 52.54253 9.35087 24574 ft 465 kts 185°
2026-05-06 19:10 52.51048 9.34221 24784 ft 469 kts 185°
2026-05-06 19:10 52.47806 9.33356 24983 ft 473 kts 185°
2026-05-06 19:10 52.44549 9.32501 25197 ft 476 kts 185°
2026-05-06 19:11 52.41270 9.31647 25624 ft 473 kts 185°
2026-05-06 19:11 52.38050 9.30810 26369 ft 465 kts 185°
2026-05-06 19:11 52.34882 9.29990 27052 ft 458 kts 185°
2026-05-06 19:11 52.31766 9.29179 27839 ft 447 kts 185°
2026-05-06 19:12 52.28720 9.28383 28563 ft 441 kts 186°
2026-05-06 19:12 52.25687 9.27594 28878 ft 444 kts 186°
2026-05-06 19:12 52.22615 9.26802 29075 ft 449 kts 185°
2026-05-06 19:12 52.19509 9.26158 29352 ft 451 kts 183°
2026-05-06 19:13 52.16382 9.25628 29706 ft 452 kts 182°
2026-05-06 19:13 52.13245 9.25115 30036 ft 453 kts 182°
2026-05-06 19:13 52.10103 9.24577 30314 ft 456 kts 183°
2026-05-06 19:13 52.06942 9.24009 30554 ft 459 kts 183°
2026-05-06 19:14 52.03766 9.23399 30832 ft 461 kts 185°
2026-05-06 19:14 52.00589 9.22595 31110 ft 463 kts 187°
2026-05-06 19:14 51.97406 9.21693 31369 ft 465 kts 187°
2026-05-06 19:14 51.94219 9.20792 31612 ft 467 kts 187°
2026-05-06 19:15 51.91004 9.19922 31870 ft 469 kts 186°
2026-05-06 19:15 51.87770 9.19080 32072 ft 471 kts 186°
2026-05-06 19:15 51.84514 9.18325 32320 ft 472 kts 185°
2026-05-06 19:15 51.81261 9.17633 32568 ft 473 kts 184°
2026-05-06 19:16 51.77993 9.16956 32786 ft 474 kts 184°
2026-05-06 19:16 51.74715 9.16273 32986 ft 476 kts 185°
2026-05-06 19:16 51.71417 9.15576 33199 ft 478 kts 185°
2026-05-06 19:16 51.68123 9.14871 33416 ft 479 kts 185°
2026-05-06 19:17 51.64817 9.14158 33612 ft 480 kts 185°
2026-05-06 19:17 51.61490 9.13440 33797 ft 482 kts 185°
2026-05-06 19:17 51.58158 9.12722 33973 ft 484 kts 185°
2026-05-06 19:17 51.54815 9.12004 34146 ft 485 kts 185°
2026-05-06 19:18 51.51461 9.11285 34325 ft 486 kts 185°
2026-05-06 19:18 51.48111 9.10418 34502 ft 489 kts 188°
2026-05-06 19:18 51.44777 9.09291 34691 ft 490 kts 190°
2026-05-06 19:18 51.41457 9.08072 34882 ft 491 kts 191°
2026-05-06 19:19 51.38129 9.06862 35122 ft 489 kts 190°
2026-05-06 19:19 51.34803 9.05705 35360 ft 488 kts 189°
2026-05-06 19:19 51.31479 9.04591 35535 ft 489 kts 188°
2026-05-06 19:19 51.28166 9.03785 35686 ft 488 kts 185°
2026-05-06 19:20 51.24758 9.03100 35896 ft 487 kts 184°
2026-05-06 19:20 51.21445 9.02475 36119 ft 486 kts 184°
2026-05-06 19:20 51.18087 9.01850 36329 ft 485 kts 184°
2026-05-06 19:20 51.14733 9.01217 36484 ft 486 kts 184°
2026-05-06 19:21 51.11369 9.00569 36586 ft 487 kts 184°
2026-05-06 19:21 51.08006 8.99911 36721 ft 488 kts 184°
2026-05-06 19:21 51.04622 8.99243 36742 ft 490 kts 184°
2026-05-06 19:22 50.97825 8.97893 36762 ft 494 kts 184°
2026-05-06 19:22 50.90968 8.96534 36759 ft 497 kts 184°
2026-05-06 19:23 50.84122 8.95183 36753 ft 500 kts 184°
2026-05-06 19:23 50.77171 8.93816 36746 ft 500 kts 184°
2026-05-06 19:24 50.70281 8.92465 36741 ft 499 kts 184°
2026-05-06 19:24 50.63441 8.91128 36743 ft 497 kts 184°
2026-05-06 19:25 50.56591 8.89794 36743 ft 495 kts 184°
2026-05-06 19:25 50.49758 8.88466 36746 ft 493 kts 184°
2026-05-06 19:26 50.42966 8.87151 36745 ft 491 kts 184°
2026-05-06 19:26 50.36186 8.85842 36747 ft 490 kts 184°
2026-05-06 19:27 50.29428 8.84541 36744 ft 488 kts 184°
2026-05-06 19:27 50.22692 8.83247 36750 ft 487 kts 184°
2026-05-06 19:28 50.15913 8.81950 36746 ft 487 kts 184°
2026-05-06 19:28 50.09177 8.80663 36754 ft 488 kts 184°
2026-05-06 19:29 50.02476 8.79365 36749 ft 489 kts 185°
2026-05-06 19:29 49.95724 8.77966 36749 ft 490 kts 185°
2026-05-06 19:30 49.88938 8.76554 36747 ft 492 kts 185°
2026-05-06 19:30 49.83300 8.75394 36752 ft 493 kts 185°
2026-05-06 19:31 49.76452 8.73996 36749 ft 494 kts 185°
2026-05-06 19:31 49.66243 8.71915 36745 ft 495 kts 185°
2026-05-06 19:32 49.59414 8.70523 36750 ft 496 kts 185°
2026-05-06 19:32 49.52570 8.69131 36746 ft 496 kts 185°
2026-05-06 19:33 49.45724 8.67743 36744 ft 496 kts 185°
2026-05-06 19:33 49.38896 8.66360 36749 ft 494 kts 185°
2026-05-06 19:34 49.32079 8.64980 36746 ft 493 kts 185°
2026-05-06 19:34 49.25277 8.63607 36746 ft 492 kts 185°
2026-05-06 19:35 49.18492 8.62242 36747 ft 491 kts 185°
2026-05-06 19:35 49.11716 8.60882 36745 ft 490 kts 185°
2026-05-06 19:36 49.04949 8.59528 36747 ft 490 kts 185°
2026-05-06 19:36 48.98192 8.58132 36748 ft 491 kts 187°
2026-05-06 19:37 48.91488 8.56063 36754 ft 492 kts 190°
2026-05-06 19:37 48.84801 8.53776 36745 ft 493 kts 190°
2026-05-06 19:38 48.78102 8.51546 36745 ft 494 kts 189°
2026-05-06 19:38 48.71359 8.49366 36748 ft 495 kts 189°
2026-05-06 19:39 48.64610 8.47208 36753 ft 497 kts 189°
2026-05-06 19:39 48.57884 8.45060 36749 ft 498 kts 189°
2026-05-06 19:40 48.51091 8.42893 36753 ft 500 kts 189°
2026-05-06 19:40 48.44280 8.40724 36751 ft 501 kts 189°
2026-05-06 19:41 48.37454 8.38558 36742 ft 501 kts 189°
2026-05-06 19:41 48.30629 8.36398 36741 ft 500 kts 189°
2026-05-06 19:42 48.23830 8.34250 36746 ft 499 kts 189°
2026-05-06 19:42 48.17104 8.31623 36740 ft 501 kts 200°
2026-05-06 19:43 48.11008 8.26583 36762 ft 502 kts 213°
2026-05-06 19:43 48.05178 8.20818 36746 ft 502 kts 213°
2026-05-06 19:44 47.99332 8.15098 36750 ft 502 kts 212°
2026-05-06 19:44 47.93492 8.09479 36751 ft 502 kts 212°
2026-05-06 19:45 47.87604 8.03859 36745 ft 503 kts 212°
2026-05-06 19:45 47.81691 7.98231 36745 ft 505 kts 212°
2026-05-06 19:46 47.75772 7.92607 36747 ft 506 kts 212°
2026-05-06 19:46 47.69836 7.86981 36753 ft 505 kts 212°
2026-05-06 19:47 47.63916 7.81376 36747 ft 505 kts 212°
2026-05-06 19:47 47.57996 7.75800 36742 ft 503 kts 212°
2026-05-06 19:48 47.52098 7.70258 36745 ft 501 kts 212°
2026-05-06 19:48 47.46218 7.64746 36735 ft 500 kts 212°
2026-05-06 19:49 47.40356 7.59263 36743 ft 498 kts 212°
2026-05-06 19:49 47.34497 7.53799 36751 ft 498 kts 212°
2026-05-06 19:50 47.28641 7.48351 36752 ft 498 kts 211°
2026-05-06 19:50 47.22778 7.42909 36749 ft 499 kts 211°
2026-05-06 19:51 47.17037 7.37240 36740 ft 501 kts 220°
2026-05-06 19:51 47.12347 7.29713 36760 ft 500 kts 234°
2026-05-06 19:52 47.08124 7.21584 36743 ft 502 kts 233°
2026-05-06 19:52 47.03775 7.13563 36750 ft 503 kts 232°
2026-05-06 19:53 46.99385 7.05583 36745 ft 503 kts 232°
2026-05-06 19:53 46.94998 6.97600 36747 ft 503 kts 232°
2026-05-06 19:54 46.90494 6.89765 36737 ft 503 kts 224°
2026-05-06 19:54 46.85135 6.83208 36747 ft 502 kts 218°
2026-05-06 19:55 46.79669 6.76874 36748 ft 502 kts 218°
2026-05-06 19:55 46.74230 6.70493 36746 ft 501 kts 219°
2026-05-06 19:56 46.68815 6.64081 36742 ft 501 kts 219°
2026-05-06 19:56 46.63410 6.57680 36750 ft 501 kts 219°
2026-05-06 19:57 46.57995 6.51290 36751 ft 500 kts 219°
2026-05-06 19:57 46.52580 6.44921 36746 ft 501 kts 219°
2026-05-06 19:58 46.47164 6.38568 36749 ft 500 kts 219°
2026-05-06 19:58 46.41748 6.32231 36747 ft 500 kts 219°
2026-05-06 19:59 46.36331 6.25908 36748 ft 500 kts 219°
2026-05-06 19:59 46.30949 6.19643 36748 ft 500 kts 219°
2026-05-06 20:00 46.25115 6.14240 36752 ft 497 kts 202°
2026-05-06 20:00 46.18517 6.11467 36749 ft 492 kts 186°
2026-05-06 20:01 46.11727 6.10087 36747 ft 493 kts 185°
2026-05-06 20:01 46.04930 6.08678 36736 ft 494 kts 186°
2026-05-06 20:02 45.98123 6.07186 36754 ft 495 kts 186°
2026-05-06 20:02 45.91306 6.05676 36753 ft 496 kts 186°
2026-05-06 20:03 45.84473 6.04175 36750 ft 497 kts 186°
2026-05-06 20:03 45.77628 6.02667 36746 ft 498 kts 186°
2026-05-06 20:04 45.70773 6.01156 36740 ft 498 kts 186°
2026-05-06 20:04 45.63903 5.99646 36742 ft 499 kts 186°
2026-05-06 20:05 45.57036 5.98141 36754 ft 499 kts 186°
2026-05-06 20:05 45.50170 5.96639 36750 ft 498 kts 186°
2026-05-06 20:06 45.43344 5.94896 36740 ft 500 kts 189°
2026-05-06 20:06 45.36585 5.92739 36750 ft 500 kts 191°
2026-05-06 20:07 45.29812 5.90543 36749 ft 499 kts 190°
2026-05-06 20:07 45.23041 5.88406 36739 ft 497 kts 190°
2026-05-06 20:08 45.16279 5.86308 36747 ft 496 kts 190°
2026-05-06 20:08 45.09527 5.84225 36741 ft 496 kts 190°
2026-05-06 20:09 45.02827 5.82159 36755 ft 497 kts 190°
2026-05-06 20:09 44.96054 5.80075 36746 ft 499 kts 190°
2026-05-06 20:10 44.89269 5.77990 36750 ft 500 kts 190°
2026-05-06 20:10 44.82467 5.75906 36750 ft 501 kts 190°
2026-05-06 20:11 44.75651 5.73822 36746 ft 501 kts 190°
2026-05-06 20:11 44.68830 5.71742 36741 ft 502 kts 190°
2026-05-06 20:12 44.62006 5.69660 36743 ft 502 kts 190°
2026-05-06 20:12 44.55169 5.67587 36746 ft 502 kts 190°
2026-05-06 20:13 44.48334 5.65521 36742 ft 502 kts 190°
2026-05-06 20:13 44.41503 5.63457 36748 ft 502 kts 190°
2026-05-06 20:14 44.35870 5.61443 36735 ft 503 kts 199°
2026-05-06 20:14 44.28312 5.57221 36754 ft 503 kts 201°
2026-05-06 20:15 44.21828 5.53532 36756 ft 503 kts 200°
2026-05-06 20:15 44.15326 5.49947 36747 ft 503 kts 200°
2026-05-06 20:16 44.09909 5.46997 36754 ft 502 kts 200°
2026-05-06 20:16 44.03399 5.43455 36751 ft 502 kts 200°
2026-05-06 20:17 43.96890 5.39916 36747 ft 502 kts 200°
2026-05-06 20:17 43.90390 5.36403 36757 ft 501 kts 199°
2026-05-06 20:18 43.83898 5.32906 36744 ft 500 kts 199°
2026-05-06 20:18 43.77419 5.29422 36737 ft 499 kts 199°
2026-05-06 20:19 43.70953 5.25951 36750 ft 498 kts 199°
2026-05-06 20:19 43.64502 5.22495 36742 ft 497 kts 199°
2026-05-06 20:20 43.58064 5.19055 36747 ft 496 kts 199°
2026-05-06 20:20 43.51675 5.15649 36749 ft 495 kts 199°
2026-05-06 20:21 43.45251 5.12231 36746 ft 494 kts 199°
2026-05-06 20:21 43.38862 5.08730 36744 ft 495 kts 205°
2026-05-06 20:22 43.33042 5.03679 36755 ft 495 kts 215°
2026-05-06 20:22 43.27411 4.98208 36750 ft 496 kts 214°
2026-05-06 20:23 43.21744 4.92811 36747 ft 496 kts 214°
2026-05-06 20:23 43.16042 4.87463 36749 ft 497 kts 214°
2026-05-06 20:24 43.10333 4.82124 36748 ft 498 kts 214°
2026-05-06 20:24 43.04622 4.76849 36746 ft 498 kts 211°
2026-05-06 20:25 42.98597 4.72164 36756 ft 498 kts 207°
2026-05-06 20:25 42.92495 4.67689 36747 ft 498 kts 207°
2026-05-06 20:26 42.86399 4.63166 36748 ft 499 kts 208°
2026-05-06 20:26 42.80321 4.58598 36747 ft 499 kts 208°
2026-05-06 20:27 42.74239 4.54016 36748 ft 499 kts 208°
2026-05-06 20:27 42.68162 4.49451 36748 ft 499 kts 208°
2026-05-06 20:28 42.62120 4.44926 36747 ft 499 kts 208°
2026-05-06 20:28 42.56046 4.40388 36747 ft 498 kts 208°
2026-05-06 20:29 42.49961 4.35853 36748 ft 498 kts 208°
2026-05-06 20:29 42.43888 4.31336 36747 ft 498 kts 208°
2026-05-06 20:30 42.34782 4.24582 36748 ft 497 kts 207°
2026-05-06 20:31 42.28713 4.20092 36747 ft 497 kts 207°
2026-05-06 20:31 42.22649 4.15616 36748 ft 497 kts 207°
2026-05-06 20:32 42.16574 4.11141 36748 ft 497 kts 207°
2026-05-06 20:32 42.10506 4.06678 36748 ft 497 kts 207°
2026-05-06 20:33 42.04435 4.02217 36748 ft 497 kts 207°
2026-05-06 20:33 41.98401 3.97792 36748 ft 497 kts 207°
2026-05-06 20:34 41.92326 3.93347 36748 ft 497 kts 207°
2026-05-06 20:34 41.86180 3.89094 36748 ft 497 kts 205°
2026-05-06 20:35 41.79979 3.84993 36748 ft 497 kts 205°
2026-05-06 20:35 41.73778 3.80879 36748 ft 497 kts 205°
2026-05-06 20:36 41.67587 3.76741 36748 ft 497 kts 205°
2026-05-06 20:36 41.61395 3.72599 36748 ft 498 kts 205°
2026-05-06 20:37 41.55199 3.68464 36747 ft 498 kts 205°
2026-05-06 20:37 41.49006 3.64343 36748 ft 498 kts 205°
2026-05-06 20:38 41.42802 3.60223 36748 ft 498 kts 205°
2026-05-06 20:38 41.36605 3.56116 36748 ft 498 kts 205°
2026-05-06 20:39 41.30404 3.52015 36748 ft 498 kts 205°
2026-05-06 20:39 41.24200 3.47920 36748 ft 498 kts 205°
2026-05-06 20:40 41.17921 3.44058 36737 ft 496 kts 197°
2026-05-06 20:40 41.11235 3.42025 36751 ft 492 kts 188°
2026-05-06 20:41 41.04542 3.40381 36748 ft 493 kts 188°
2026-05-06 20:41 40.97804 3.38673 36747 ft 493 kts 188°
2026-05-06 20:42 40.91072 3.36914 36748 ft 493 kts 189°
2026-05-06 20:42 40.84343 3.35145 36748 ft 493 kts 189°
2026-05-06 20:43 40.77604 3.33378 36748 ft 493 kts 189°
2026-05-06 20:43 40.70866 3.31619 36748 ft 494 kts 188°
2026-05-06 20:44 40.64127 3.29864 36748 ft 494 kts 188°
2026-05-06 20:44 40.57379 3.28110 36748 ft 494 kts 188°
2026-05-06 20:45 40.50639 3.26361 36748 ft 494 kts 188°
2026-05-06 20:45 40.43929 3.24623 36748 ft 494 kts 188°
2026-05-06 20:46 40.37188 3.22881 36747 ft 494 kts 188°
2026-05-06 20:46 40.30437 3.21141 36748 ft 494 kts 188°
2026-05-06 20:47 40.23691 3.19411 36748 ft 494 kts 188°
2026-05-06 20:47 40.16954 3.17686 36747 ft 494 kts 188°
2026-05-06 20:48 40.10204 3.15961 36748 ft 494 kts 188°
2026-05-06 20:48 40.03466 3.14241 36748 ft 494 kts 188°
2026-05-06 20:49 39.96725 3.12524 36748 ft 493 kts 188°
2026-05-06 20:49 39.90172 3.09957 36747 ft 497 kts 209°
2026-05-06 20:50 39.84230 3.05454 36752 ft 497 kts 209°
2026-05-06 20:50 39.78228 3.00957 36757 ft 497 kts 208°
2026-05-06 20:51 39.72195 2.96548 36741 ft 498 kts 208°
2026-05-06 20:51 39.66135 2.92161 36748 ft 498 kts 208°
2026-05-06 20:52 39.60074 2.87778 36747 ft 499 kts 208°
2026-05-06 20:52 39.57041 2.85585 36638 ft 501 kts 208°
2026-05-06 20:52 39.53970 2.83366 36068 ft 506 kts 208°
2026-05-06 20:52 39.50904 2.81152 35460 ft 504 kts 208°
2026-05-06 20:53 39.47838 2.78941 34788 ft 504 kts 208°
2026-05-06 20:53 39.44781 2.76711 34104 ft 505 kts 211°
2026-05-06 20:53 39.42051 2.73858 33362 ft 506 kts 230°
2026-05-06 20:53 39.39862 2.70316 32699 ft 504 kts 233°
2026-05-06 20:54 39.37693 2.66732 31897 ft 507 kts 233°
2026-05-06 20:54 39.35506 2.63162 31143 ft 508 kts 232°
2026-05-06 20:54 39.33293 2.59600 30365 ft 509 kts 232°
2026-05-06 20:54 39.31060 2.56043 29552 ft 510 kts 232°
2026-05-06 20:55 39.28818 2.52495 28671 ft 511 kts 231°
2026-05-06 20:55 39.26565 2.48941 27769 ft 513 kts 231°
2026-05-06 20:55 39.24309 2.45387 27097 ft 508 kts 230°
2026-05-06 20:55 39.22082 2.41880 26448 ft 503 kts 229°
2026-05-06 20:56 39.19875 2.38406 25804 ft 498 kts 229°
2026-05-06 20:56 39.17722 2.35020 25176 ft 492 kts 228°
2026-05-06 20:56 39.15563 2.31626 24542 ft 486 kts 227°
2026-05-06 20:56 39.13433 2.28281 23921 ft 480 kts 227°
2026-05-06 20:57 39.11329 2.24981 23303 ft 473 kts 226°
2026-05-06 20:57 39.09258 2.21736 22698 ft 465 kts 226°
2026-05-06 20:57 39.07221 2.18548 22105 ft 457 kts 226°
2026-05-06 20:57 39.05220 2.15420 21531 ft 449 kts 226°
2026-05-06 20:58 39.03249 2.12342 20952 ft 441 kts 226°
2026-05-06 20:58 39.01316 2.09326 20382 ft 433 kts 227°
2026-05-06 20:58 38.99417 2.06368 19820 ft 424 kts 227°
2026-05-06 20:58 38.97557 2.03473 19266 ft 416 kts 227°
2026-05-06 20:59 38.95727 2.00625 18722 ft 409 kts 227°
2026-05-06 20:59 38.93936 1.97841 18174 ft 401 kts 228°
2026-05-06 20:59 38.92172 1.95102 17630 ft 394 kts 229°
2026-05-06 20:59 38.90655 1.92206 17102 ft 391 kts 244°
2026-05-06 21:00 38.89823 1.88943 16892 ft 379 kts 252°
2026-05-06 21:00 38.89175 1.85696 16627 ft 370 kts 253°
2026-05-06 21:00 38.88559 1.82541 16223 ft 372 kts 254°
2026-05-06 21:00 38.87921 1.79317 15715 ft 373 kts 254°
2026-05-06 21:01 38.87275 1.76106 15161 ft 370 kts 254°
2026-05-06 21:01 38.86628 1.72932 14617 ft 365 kts 255°
2026-05-06 21:01 38.85983 1.69795 14098 ft 361 kts 255°
2026-05-06 21:01 38.85345 1.66702 13564 ft 357 kts 256°
2026-05-06 21:02 38.84709 1.63634 13031 ft 354 kts 256°
2026-05-06 21:02 38.84078 1.60589 12521 ft 352 kts 256°
2026-05-06 21:02 38.83434 1.57550 12011 ft 354 kts 256°
2026-05-06 21:02 38.82771 1.54562 11867 ft 343 kts 256°
2026-05-06 21:03 38.82120 1.51651 11696 ft 335 kts 256°
2026-05-06 21:03 38.81490 1.48823 11549 ft 324 kts 256°
2026-05-06 21:03 38.80881 1.46087 11408 ft 313 kts 256°
2026-05-06 21:03 38.80490 1.44329 11320 ft 306 kts 256°
2026-05-06 21:04 38.79791 1.41793 11180 ft 299 kts 248°
2026-05-06 21:04 38.78838 1.39464 11063 ft 291 kts 244°
2026-05-06 21:04 38.77863 1.37239 10925 ft 282 kts 244°
2026-05-06 21:04 38.76635 1.34381 10767 ft 271 kts 245°
2026-05-06 21:05 38.76036 1.32957 10686 ft 265 kts 245°
2026-05-06 21:05 38.75178 1.30902 10573 ft 257 kts 246°
2026-05-06 21:05 38.74350 1.28910 10467 ft 250 kts 246°
2026-05-06 21:05 38.73541 1.26960 10240 ft 247 kts 246°
2026-05-06 21:06 38.72733 1.25021 9995 ft 246 kts 246°
2026-05-06 21:06 38.71937 1.23109 9753 ft 248 kts 246°
2026-05-06 21:06 38.71120 1.21145 9492 ft 251 kts 246°
2026-05-06 21:06 38.70296 1.19171 9205 ft 251 kts 246°
2026-05-06 21:07 38.69472 1.17199 8932 ft 251 kts 246°
2026-05-06 21:07 38.68649 1.15231 8661 ft 251 kts 245°
2026-05-06 21:07 38.67827 1.13265 8395 ft 250 kts 245°
2026-05-06 21:07 38.67006 1.11304 8143 ft 250 kts 245°
2026-05-06 21:08 38.66187 1.09347 7886 ft 249 kts 245°
2026-05-06 21:08 38.65370 1.07399 7632 ft 248 kts 245°
2026-05-06 21:08 38.64578 1.05447 7377 ft 246 kts 252°
2026-05-06 21:08 38.64210 1.03348 7129 ft 240 kts 266°
2026-05-06 21:09 38.63979 1.01241 6929 ft 237 kts 265°
2026-05-06 21:09 38.63801 0.99176 6811 ft 231 kts 277°
2026-05-06 21:09 38.64319 0.97314 6628 ft 221 kts 310°
2026-05-06 21:09 38.65433 0.96001 6425 ft 218 kts 329°
2026-05-06 21:10 38.66773 0.95083 6205 ft 219 kts 339°
2026-05-06 21:10 38.68243 0.94953 6151 ft 214 kts 17°
2026-05-06 21:10 38.69449 0.96087 5984 ft 222 kts 49°
2026-05-06 21:10 38.70410 0.97680 5732 ft 231 kts 50°
2026-05-06 21:11 38.71373 0.99332 5472 ft 231 kts 51°
2026-05-06 21:11 38.72269 1.01015 5216 ft 232 kts 55°
2026-05-06 21:11 38.73086 1.02795 4961 ft 232 kts 58°
2026-05-06 21:11 38.73863 1.04635 4706 ft 231 kts 59°
2026-05-06 21:12 38.74612 1.06456 4456 ft 231 kts 59°
2026-05-06 21:12 38.75345 1.08249 4213 ft 230 kts 59°
2026-05-06 21:12 38.76085 1.10058 3966 ft 229 kts 59°
2026-05-06 21:12 38.76823 1.11861 3723 ft 228 kts 59°
2026-05-06 21:13 38.77560 1.13660 3474 ft 227 kts 59°
2026-05-06 21:13 38.78294 1.15450 3235 ft 227 kts 59°
2026-05-06 21:13 38.79027 1.17237 2988 ft 226 kts 59°
2026-05-06 21:13 38.79756 1.19013 2772 ft 223 kts 59°
2026-05-06 21:14 38.80468 1.20750 2603 ft 219 kts 59°
2026-05-06 21:14 38.81172 1.22464 2338 ft 215 kts 59°
2026-05-06 21:14 38.81862 1.24143 2052 ft 211 kts 59°
2026-05-06 21:14 38.82537 1.25785 1776 ft 205 kts 59°
2026-05-06 21:15 38.83187 1.27367 1498 ft 194 kts 59°
2026-05-06 21:15 38.83778 1.28807 1260 ft 172 kts 59°
2026-05-06 21:15 38.84309 1.30095 1028 ft 155 kts 59°
2026-05-06 21:15 38.84789 1.31260 841 ft 145 kts 59°
2026-05-06 21:16 38.85263 1.32416 658 ft 149 kts 60°
2026-05-06 21:16 38.85736 1.33606 514 ft 148 kts 59°
2026-05-06 21:16 38.86211 1.34708 294 ft 135 kts 59°
2026-05-06 21:16 38.86656 1.35790 101 ft 140 kts 60°
2026-05-06 21:17 38.87093 1.36870 29 ft 126 kts 56°
2026-05-06 21:17 38.87475 1.37735 32 ft 95 kts 61°
2026-05-06 21:17 38.87661 1.38215 29 ft 20 kts 61°
2026-05-06 21:17 38.87745 1.38227 30 ft 12 kts 332°
2026-05-06 21:18 38.87803 1.38187 32 ft 0 kts 330°
2026-05-06 21:18 38.87818 1.38165 33 ft 7 kts 283°
2026-05-06 21:18 38.87772 1.38037 36 ft 24 kts 242°
2026-05-06 21:18 38.87687 1.37834 40 ft 18 kts 241°
2026-05-06 21:19 38.87611 1.37650 42 ft 29 kts 242°
2026-05-06 21:19 38.87612 1.37534 45 ft 17 kts 331°
2026-05-06 21:19 38.87697 1.37459 48 ft 15 kts 298°
2026-05-06 21:19 38.87646 1.37296 49 ft 27 kts 241°
2026-05-06 21:20 38.87576 1.37127 47 ft 16 kts 242°
2026-05-06 21:20 38.87521 1.36994 43 ft 21 kts 242°
2026-05-06 21:20 38.87491 1.36924 44 ft 7 kts 243°
2026-05-06 21:20 38.87518 1.36880 46 ft 7 kts 329°
2026-05-06 21:21 38.87532 1.36871 46 ft 2 kts 332°
2026-05-06 21:21 38.87539 1.36866 47 ft 0 kts 332°
2026-05-06 21:21 38.87536 1.36868 47 ft 0 kts 332°